Regional Weather Roundup
Issued by NWS Sioux Falls, SD

Home | Current Version | Previous Version | Text Only | Print | Product List | Glossary On
Versions: 1 2 3 4 5 6 7 8 9 10 11 12 13 14 15 16 17 18 19 20 21 22 23 24 25 26 27 28 29 30 31 32 33 34 35 36 37 38 39 40 41 42 43 44 45 46 47 48 49 50
000
ASUS43 KFSD 311802
RWRFSD

WEATHER ROUNDUP FOR SE SOUTH DAKOTA/SW MINNESOTA/NW IOWA
NATIONAL WEATHER SERVICE SIOUX FALLS SD
100 PM CDT FRI JUL 31 2015

NOTE: "FAIR" INDICATES FEW OR NO CLOUDS BELOW 12,000 FEET WITH NO
SIGNIFICANT WEATHER AND OR OBSTRUCTIONS TO VISIBILITY.


SDZ038>040-050-052>070-311900-
SOUTHEAST SOUTH DAKOTA

CITY           SKY/WX    TMP DP  RH WIND       PRES   REMARKS
BROOKINGS      SUNNY     79  50  36 N7        30.16F
CHAMBERLAIN    SUNNY     82  58  44 SE7       30.14F
6HR MIN TEMP:  58; 6HR MAX TEMP:  82;

HURON          SUNNY     82  54  37 SE7       30.13F
6HR MIN TEMP:  59; 6HR MAX TEMP:  82;

MADISON        FAIR      79  55  44 E3        30.17F
MITCHELL       SUNNY     83  58  42 E9        30.14F
6HR MIN TEMP:  59; 6HR MAX TEMP:  83;

SIOUX FALLS    SUNNY     83  57  41 N7        30.15F
6HR MIN TEMP:  61; 6HR MAX TEMP:  83;

WINNER         FAIR      89  57  33 VRB3      30.15F
YANKTON        SUNNY     82  70  65 E8        30.11F
$$

MNZ071-072-080-081-089-090-097-098-311900-
SOUTHWEST MINNESOTA

CITY           SKY/WX    TMP DP  RH WIND       PRES   REMARKS
FAIRMONT       SUNNY     79  52  38 NW13      30.13S
JACKSON        SUNNY     81  54  39 N6        30.15F
LUVERNE        SUNNY     81  50  34 CALM      30.16F
MARSHALL       SUNNY     81  50  34 N9        30.15F
6HR MIN TEMP:  59; 6HR MAX TEMP:  81;

MONTEVIDEO     SUNNY     82  59  44 N8G16     30.13F
PIPESTONE      SUNNY     81  46  30 CALM      30.16F
REDWOOD FALLS  SUNNY     82  52  35 NW12G22   30.11F
TRACY          SUNNY     79  55  44 N6        30.14F
WINDOM         SUNNY     81  52  36 NW10G17   30.14F
WORTHINGTON    SUNNY     79  52  38 N10       30.16F
$$

IAZ001>003-012>014-020>022-031-032-NEZ013-014-SDZ071-311900-
NORTHWEST IOWA

CITY           SKY/WX    TMP DP  RH WIND       PRES   REMARKS
DENISON        HAZE      82  70  65 W5        30.12S VSB 3/4
ESTHERVILLE    SUNNY     81  54  39 N12       30.15S
SIOUX CITY     SUNNY     84  68  58 VRB3      30.12F
6HR MIN TEMP:  65; 6HR MAX TEMP:  84;

SPENCER        SUNNY     84  55  36 N9        30.15F
6HR MIN TEMP:  60; 6HR MAX TEMP:  84;

$$

ABBREVIATIONS USED IN REMARKS
   TC - TEMPERATURE IN CELSIUS
  WCI - WIND CHILL INDEX
   HX - HEAT INDEX
  VSB - VISIBILITY



USA.gov is the U.S. government's official web portal to all federal, state and local government web resources and services.